MFX453 UZTT-URSS

Flight info

Callsign MFX453
Flight time 3h 41m
Altitude 36000
Route K0833F360 DIBA2C DIBAD N193 AKT N154 ITAKA R227 BEMES A944 GUBOR G487 BINOL BINO1L
Aircraft A20N/M-VGDW/C

Departure

Time 2026-04-26 09:09
Airport Tashkent International Airport (UZTT)

Arrival

Time 2026-04-26 12:50
Airport Sochi International Airport (URSS)
Time Latitude Longitude Altitude Speed Heading
2026-04-26 08:44 41.26303 69.27217 1382 ft 0 kts 350°
2026-04-26 08:58 41.26307 69.27216 1381 ft 2 kts 350°
2026-04-26 08:58 41.26330 69.27194 1381 ft 6 kts 296°
2026-04-26 08:58 41.26330 69.27131 1381 ft 8 kts 263°
2026-04-26 08:58 41.26322 69.27049 1380 ft 10 kts 262°
2026-04-26 08:59 41.26281 69.26995 1378 ft 10 kts 172°
2026-04-26 08:59 41.26230 69.27044 1380 ft 8 kts 137°
2026-04-26 08:59 41.26193 69.27089 1380 ft 6 kts 137°
2026-04-26 08:59 41.26156 69.27133 1380 ft 9 kts 138°
2026-04-26 09:00 41.26099 69.27200 1381 ft 11 kts 138°
2026-04-26 09:00 41.26069 69.27273 1382 ft 8 kts 90°
2026-04-26 09:00 41.26078 69.27365 1381 ft 12 kts 81°
2026-04-26 09:00 41.26093 69.27500 1382 ft 17 kts 82°
2026-04-26 09:01 41.26110 69.27657 1380 ft 17 kts 81°
2026-04-26 09:01 41.26121 69.27756 1383 ft 15 kts 81°
2026-04-26 09:01 41.26136 69.27888 1381 ft 14 kts 82°
2026-04-26 09:01 41.26149 69.28007 1382 ft 14 kts 82°
2026-04-26 09:02 41.26165 69.28155 1382 ft 18 kts 82°
2026-04-26 09:02 41.26182 69.28306 1378 ft 16 kts 82°
2026-04-26 09:02 41.26191 69.28444 1382 ft 14 kts 92°
2026-04-26 09:02 41.26187 69.28563 1383 ft 13 kts 93°
2026-04-26 09:03 41.26181 69.28706 1381 ft 17 kts 90°
2026-04-26 09:03 41.26186 69.28888 1383 ft 21 kts 88°
2026-04-26 09:03 41.26193 69.29092 1382 ft 21 kts 86°
2026-04-26 09:03 41.26201 69.29283 1384 ft 19 kts 87°
2026-04-26 09:04 41.26207 69.29443 1384 ft 17 kts 87°
2026-04-26 09:04 41.26213 69.29585 1385 ft 14 kts 87°
2026-04-26 09:04 41.26217 69.29707 1383 ft 12 kts 87°
2026-04-26 09:04 41.26221 69.29811 1385 ft 10 kts 87°
2026-04-26 09:05 41.26224 69.29895 1382 ft 8 kts 88°
2026-04-26 09:05 41.26217 69.29981 1384 ft 11 kts 116°
2026-04-26 09:05 41.26166 69.30041 1402 ft 8 kts 142°
2026-04-26 09:05 41.26130 69.30080 1406 ft 6 kts 141°
2026-04-26 09:06 41.26095 69.30118 1404 ft 9 kts 139°
2026-04-26 09:06 41.26077 69.30217 1407 ft 11 kts 83°
2026-04-26 09:06 41.26086 69.30318 1407 ft 10 kts 94°
2026-04-26 09:06 41.26041 69.30378 1404 ft 10 kts 163°
2026-04-26 09:07 41.25964 69.30395 1408 ft 11 kts 172°
2026-04-26 09:07 41.25910 69.30381 1408 ft 8 kts 226°
2026-04-26 09:07 41.25896 69.30306 1403 ft 9 kts 262°
2026-04-26 09:07 41.25890 69.30258 1408 ft 0 kts 261°
2026-04-26 09:08 41.25879 69.30160 1408 ft 41 kts 262°
2026-04-26 09:08 41.25800 69.29456 1406 ft 107 kts 262°
2026-04-26 09:08 41.25668 69.28249 1405 ft 157 kts 262°
2026-04-26 09:09 41.25498 69.26671 1742 ft 171 kts 261°
2026-04-26 09:09 41.25346 69.25126 2585 ft 165 kts 266°
2026-04-26 09:09 41.25235 69.24104 3107 ft 165 kts 263°
2026-04-26 09:09 41.25061 69.22579 3785 ft 165 kts 263°
2026-04-26 09:10 41.24888 69.21064 4456 ft 166 kts 261°
2026-04-26 09:10 41.24710 69.19495 4882 ft 181 kts 262°
2026-04-26 09:10 41.24514 69.17744 5086 ft 203 kts 262°
2026-04-26 09:10 41.24307 69.15782 5366 ft 225 kts 262°
2026-04-26 09:11 41.24116 69.13699 6110 ft 229 kts 264°
2026-04-26 09:11 41.23931 69.11553 6773 ft 235 kts 264°
2026-04-26 09:11 41.23745 69.09394 6953 ft 235 kts 263°
2026-04-26 09:11 41.23542 69.07199 7002 ft 252 kts 262°
2026-04-26 09:12 41.23281 69.04825 7003 ft 264 kts 262°
2026-04-26 09:12 41.22999 69.02391 6994 ft 267 kts 262°
2026-04-26 09:12 41.22709 68.99945 6996 ft 268 kts 261°
2026-04-26 09:12 41.22416 68.97500 7000 ft 268 kts 262°
2026-04-26 09:13 41.22124 68.95056 6998 ft 268 kts 262°
2026-04-26 09:13 41.21834 68.92610 6991 ft 269 kts 262°
2026-04-26 09:13 41.21546 68.90157 6991 ft 268 kts 262°
2026-04-26 09:13 41.21261 68.87705 6993 ft 268 kts 263°
2026-04-26 09:14 41.21265 68.85235 7075 ft 273 kts 277°
2026-04-26 09:14 41.21489 68.82727 7881 ft 273 kts 276°
2026-04-26 09:14 41.21695 68.80212 8703 ft 275 kts 274°
2026-04-26 09:14 41.21898 68.77625 9483 ft 280 kts 274°
2026-04-26 09:15 41.22098 68.75028 10184 ft 286 kts 274°
2026-04-26 09:15 41.22307 68.72310 10444 ft 308 kts 274°
2026-04-26 09:15 41.22534 68.69380 10641 ft 329 kts 274°
2026-04-26 09:15 41.22776 68.66310 11163 ft 338 kts 274°
2026-04-26 09:16 41.23024 68.63182 11860 ft 342 kts 274°
2026-04-26 09:16 41.23276 68.59992 12586 ft 345 kts 274°
2026-04-26 09:16 41.23527 68.56809 13294 ft 347 kts 274°
2026-04-26 09:16 41.23779 68.53609 14000 ft 350 kts 274°
2026-04-26 09:17 41.24032 68.50389 14617 ft 352 kts 274°
2026-04-26 09:17 41.24298 68.47012 15261 ft 354 kts 274°
2026-04-26 09:17 41.24556 68.43712 15868 ft 356 kts 274°
2026-04-26 09:17 41.24808 68.40420 16477 ft 359 kts 274°
2026-04-26 09:18 41.25061 68.37105 17055 ft 362 kts 274°
2026-04-26 09:18 41.25317 68.33762 17630 ft 365 kts 274°
2026-04-26 09:18 41.25576 68.30391 18204 ft 369 kts 274°
2026-04-26 09:18 41.25841 68.26923 18716 ft 372 kts 274°
2026-04-26 09:19 41.26109 68.23409 19231 ft 375 kts 274°
2026-04-26 09:19 41.26372 68.19947 19724 ft 378 kts 274°
2026-04-26 09:19 41.26632 68.16462 20005 ft 380 kts 274°
2026-04-26 09:19 41.26891 68.12975 20062 ft 379 kts 274°
2026-04-26 09:20 41.27148 68.09494 20063 ft 379 kts 274°
2026-04-26 09:20 41.27408 68.05967 20065 ft 378 kts 274°
2026-04-26 09:20 41.27663 68.02533 20064 ft 378 kts 274°
2026-04-26 09:20 41.27924 67.99003 20064 ft 378 kts 274°
2026-04-26 09:21 41.28178 67.95534 20065 ft 377 kts 274°
2026-04-26 09:21 41.28533 67.92076 20082 ft 380 kts 280°
2026-04-26 09:21 41.29083 67.88624 20577 ft 382 kts 279°
2026-04-26 09:21 41.29626 67.85151 21114 ft 385 kts 279°
2026-04-26 09:22 41.30168 67.81655 21636 ft 387 kts 279°
2026-04-26 09:22 41.30710 67.78141 22126 ft 390 kts 279°
2026-04-26 09:22 41.31256 67.74597 22607 ft 393 kts 279°
2026-04-26 09:22 41.31806 67.71024 23084 ft 395 kts 278°
2026-04-26 09:23 41.32359 67.67437 23543 ft 398 kts 278°
2026-04-26 09:23 41.32917 67.63820 23935 ft 400 kts 278°
2026-04-26 09:23 41.33480 67.60191 24323 ft 402 kts 278°
2026-04-26 09:23 41.34041 67.56544 24719 ft 403 kts 278°
2026-04-26 09:24 41.34600 67.52885 25094 ft 404 kts 279°
2026-04-26 09:24 41.35169 67.49164 25480 ft 405 kts 279°
2026-04-26 09:24 41.35726 67.45530 25844 ft 407 kts 279°
2026-04-26 09:24 41.36300 67.41796 26209 ft 408 kts 279°
2026-04-26 09:25 41.36859 67.38129 26568 ft 409 kts 279°
2026-04-26 09:25 41.37426 67.34364 26929 ft 410 kts 279°
2026-04-26 09:25 41.37985 67.30642 27274 ft 412 kts 279°
2026-04-26 09:25 41.38547 67.26894 27612 ft 413 kts 279°
2026-04-26 09:26 41.39108 67.23139 27957 ft 414 kts 279°
2026-04-26 09:26 41.39672 67.19364 28279 ft 416 kts 279°
2026-04-26 09:26 41.40239 67.15590 28589 ft 417 kts 279°
2026-04-26 09:26 41.40808 67.11787 28898 ft 418 kts 279°
2026-04-26 09:27 41.41375 67.07986 29203 ft 419 kts 279°
2026-04-26 09:27 41.41943 67.04170 29493 ft 421 kts 279°
2026-04-26 09:27 41.42512 67.00341 29778 ft 422 kts 278°
2026-04-26 09:27 41.42896 66.97741 29957 ft 423 kts 278°
2026-04-26 09:28 41.43463 66.93895 30208 ft 424 kts 278°
2026-04-26 09:28 41.44031 66.90035 30427 ft 425 kts 278°
2026-04-26 09:28 41.44600 66.86163 30637 ft 426 kts 278°
2026-04-26 09:28 41.45169 66.82284 30896 ft 426 kts 278°
2026-04-26 09:29 41.45737 66.78424 31190 ft 424 kts 278°
2026-04-26 09:29 41.46303 66.74565 31479 ft 423 kts 278°
2026-04-26 09:29 41.46863 66.70727 31773 ft 422 kts 278°
2026-04-26 09:29 41.47420 66.66895 32062 ft 421 kts 278°
2026-04-26 09:30 41.47971 66.63070 32346 ft 419 kts 278°
2026-04-26 09:30 41.48520 66.59249 32621 ft 419 kts 278°
2026-04-26 09:30 41.49082 66.55388 32903 ft 418 kts 278°
2026-04-26 09:30 41.49644 66.51590 33177 ft 417 kts 278°
2026-04-26 09:31 41.50211 66.47799 33450 ft 417 kts 278°
2026-04-26 09:31 41.50775 66.44010 33720 ft 416 kts 278°
2026-04-26 09:31 41.51332 66.40228 33989 ft 415 kts 277°
2026-04-26 09:31 41.51884 66.36451 34228 ft 415 kts 277°
2026-04-26 09:32 41.52430 66.32678 34459 ft 414 kts 277°
2026-04-26 09:32 41.52977 66.28902 34677 ft 414 kts 277°
2026-04-26 09:32 41.53523 66.25133 34893 ft 414 kts 278°
2026-04-26 09:32 41.54072 66.21363 35102 ft 413 kts 278°
2026-04-26 09:33 41.54621 66.17601 35304 ft 413 kts 278°
2026-04-26 09:33 41.55167 66.13843 35503 ft 412 kts 278°
2026-04-26 09:33 41.55713 66.10079 35703 ft 412 kts 278°
2026-04-26 09:33 41.56250 66.06324 35889 ft 412 kts 277°
2026-04-26 09:34 41.56790 66.02521 36069 ft 411 kts 277°
2026-04-26 09:34 41.57852 65.95031 36129 ft 410 kts 278°
2026-04-26 09:35 41.58911 65.87562 36128 ft 409 kts 277°
2026-04-26 09:35 41.59964 65.80080 36130 ft 410 kts 277°
2026-04-26 09:36 41.61017 65.72600 36131 ft 410 kts 277°
2026-04-26 09:36 41.62065 65.65119 36137 ft 410 kts 277°
2026-04-26 09:37 41.63108 65.57624 36142 ft 410 kts 277°
2026-04-26 09:37 41.64151 65.50078 36146 ft 410 kts 277°
2026-04-26 09:38 41.65184 65.42575 36145 ft 410 kts 277°
2026-04-26 09:38 41.66205 65.35069 36154 ft 410 kts 277°
2026-04-26 09:39 41.67224 65.27565 36161 ft 410 kts 277°
2026-04-26 09:39 41.68248 65.20061 36167 ft 410 kts 277°
2026-04-26 09:40 41.69260 65.12550 36173 ft 410 kts 277°
2026-04-26 09:40 41.70273 65.04945 36179 ft 409 kts 277°
2026-04-26 09:41 41.71269 64.97441 36180 ft 409 kts 277°
2026-04-26 09:41 41.72273 64.89901 36181 ft 409 kts 277°
2026-04-26 09:42 41.73271 64.82405 36185 ft 409 kts 277°
2026-04-26 09:42 41.74254 64.74896 36184 ft 409 kts 277°
2026-04-26 09:43 41.75224 64.67394 36193 ft 409 kts 277°
2026-04-26 09:43 41.76331 64.59869 36189 ft 411 kts 282°
2026-04-26 09:44 41.77848 64.52495 36195 ft 411 kts 282°
2026-04-26 09:44 41.79366 64.45102 36190 ft 411 kts 282°
2026-04-26 09:45 41.80872 64.37716 36195 ft 411 kts 282°
2026-04-26 09:45 41.82362 64.30332 36193 ft 411 kts 282°
2026-04-26 09:46 41.83855 64.22942 36197 ft 411 kts 282°
2026-04-26 09:46 41.85345 64.15549 36198 ft 410 kts 282°
2026-04-26 09:47 41.86830 64.08158 36206 ft 410 kts 282°
2026-04-26 09:47 41.88304 64.00770 36201 ft 410 kts 282°
2026-04-26 09:48 41.89784 63.93325 36207 ft 410 kts 282°
2026-04-26 09:48 41.91246 63.85938 36208 ft 410 kts 281°
2026-04-26 09:49 41.92707 63.78555 36213 ft 409 kts 281°
2026-04-26 09:49 41.94160 63.71180 36210 ft 408 kts 281°
2026-04-26 09:50 41.95605 63.63811 36210 ft 407 kts 281°
2026-04-26 09:50 41.97039 63.56454 36215 ft 407 kts 281°
2026-04-26 09:51 41.98476 63.49092 36218 ft 407 kts 281°
2026-04-26 09:51 41.99914 63.41687 36215 ft 406 kts 281°
2026-04-26 09:52 42.01095 63.35576 36224 ft 406 kts 281°
2026-04-26 09:52 42.03217 63.24552 36230 ft 406 kts 281°
2026-04-26 09:53 42.04620 63.17205 36224 ft 406 kts 281°
2026-04-26 09:53 42.06022 63.09857 36232 ft 405 kts 281°
2026-04-26 09:54 42.07428 63.02460 36231 ft 405 kts 281°
2026-04-26 09:54 42.08803 62.95116 36233 ft 404 kts 280°
2026-04-26 09:55 42.10113 62.87769 36230 ft 403 kts 280°
2026-04-26 09:55 42.11408 62.80410 36231 ft 403 kts 280°
2026-04-26 09:56 42.12740 62.73075 36233 ft 404 kts 281°
2026-04-26 09:56 42.14136 62.65688 36241 ft 404 kts 281°
2026-04-26 09:57 42.15514 62.58352 36245 ft 403 kts 281°
2026-04-26 09:57 42.16878 62.51024 36245 ft 403 kts 281°
2026-04-26 09:58 42.18231 62.43713 36243 ft 402 kts 281°
2026-04-26 09:58 42.19570 62.36395 36247 ft 402 kts 280°
2026-04-26 09:59 42.20899 62.29085 36248 ft 401 kts 281°
2026-04-26 09:59 42.22235 62.21784 36252 ft 401 kts 281°
2026-04-26 10:00 42.23573 62.14432 36256 ft 401 kts 280°
2026-04-26 10:00 42.24895 62.07130 36262 ft 400 kts 280°
2026-04-26 10:01 42.26219 61.99779 36265 ft 400 kts 280°
2026-04-26 10:01 42.27519 61.92530 36267 ft 400 kts 280°
2026-04-26 10:02 42.28828 61.85196 36265 ft 399 kts 280°
2026-04-26 10:02 42.30121 61.77923 36270 ft 398 kts 280°
2026-04-26 10:03 42.31410 61.70658 36269 ft 398 kts 280°
2026-04-26 10:03 42.32695 61.63393 36280 ft 397 kts 280°
2026-04-26 10:04 42.33969 61.56137 36273 ft 397 kts 280°
2026-04-26 10:04 42.35239 61.48878 36266 ft 396 kts 280°
2026-04-26 10:05 42.36507 61.41633 36271 ft 396 kts 280°
2026-04-26 10:05 42.37770 61.34386 36274 ft 396 kts 280°
2026-04-26 10:06 42.39022 61.27147 36274 ft 395 kts 280°
2026-04-26 10:06 42.40283 61.19861 36276 ft 395 kts 280°
2026-04-26 10:07 42.41520 61.12632 36272 ft 394 kts 280°
2026-04-26 10:07 42.42757 61.05398 36281 ft 394 kts 280°
2026-04-26 10:08 42.43990 60.98172 36281 ft 394 kts 280°
2026-04-26 10:08 42.45222 60.90946 36283 ft 394 kts 280°
2026-04-26 10:09 42.46451 60.83676 36279 ft 393 kts 280°
2026-04-26 10:09 42.47663 60.76451 36282 ft 393 kts 279°
2026-04-26 10:10 42.48870 60.69235 36285 ft 393 kts 279°
2026-04-26 10:10 42.50070 60.62024 36288 ft 392 kts 279°
2026-04-26 10:11 42.51268 60.54813 36287 ft 392 kts 279°
2026-04-26 10:11 42.52463 60.47611 36290 ft 391 kts 279°
2026-04-26 10:12 42.53654 60.40357 36290 ft 391 kts 279°
2026-04-26 10:12 42.54837 60.33163 36295 ft 391 kts 279°
2026-04-26 10:13 42.56013 60.25979 36294 ft 390 kts 279°
2026-04-26 10:13 42.57182 60.18796 36296 ft 390 kts 279°
2026-04-26 10:14 42.58357 60.11572 36293 ft 389 kts 279°
2026-04-26 10:14 42.59516 60.04392 36295 ft 389 kts 279°
2026-04-26 10:15 42.60664 59.97226 36296 ft 389 kts 279°
2026-04-26 10:15 42.61808 59.90059 36295 ft 388 kts 279°
2026-04-26 10:16 42.62953 59.82851 36298 ft 388 kts 279°
2026-04-26 10:16 42.64093 59.75688 36299 ft 388 kts 279°
2026-04-26 10:17 42.65035 59.69743 36297 ft 387 kts 279°
2026-04-26 10:17 42.66160 59.62591 36301 ft 387 kts 279°
2026-04-26 10:18 42.67280 59.55449 36297 ft 387 kts 279°
2026-04-26 10:18 42.68399 59.48308 36297 ft 386 kts 279°
2026-04-26 10:19 42.69508 59.41161 36302 ft 386 kts 278°
2026-04-26 10:19 42.70615 59.33967 36299 ft 386 kts 278°
2026-04-26 10:20 42.71716 59.26825 36298 ft 386 kts 278°
2026-04-26 10:20 42.72808 59.19692 36296 ft 385 kts 278°
2026-04-26 10:21 42.73895 59.12555 36302 ft 385 kts 278°
2026-04-26 10:21 42.74979 59.05420 36302 ft 385 kts 278°
2026-04-26 10:22 42.76033 58.98287 36301 ft 385 kts 278°
2026-04-26 10:22 42.77072 58.91146 36300 ft 384 kts 278°
2026-04-26 10:23 42.78112 58.84025 36297 ft 384 kts 278°
2026-04-26 10:23 42.79145 58.76907 36296 ft 383 kts 277°
2026-04-26 10:24 42.80178 58.69740 36299 ft 383 kts 277°
2026-04-26 10:24 42.81201 58.62636 36294 ft 383 kts 277°
2026-04-26 10:25 42.82223 58.55515 36292 ft 382 kts 277°
2026-04-26 10:25 42.83236 58.48412 36289 ft 382 kts 277°
2026-04-26 10:26 42.84241 58.41304 36292 ft 382 kts 277°
2026-04-26 10:26 42.85242 58.34193 36291 ft 382 kts 277°
2026-04-26 10:27 42.86237 58.27087 36293 ft 382 kts 277°
2026-04-26 10:27 42.87232 58.19978 36294 ft 382 kts 277°
2026-04-26 10:28 42.88226 58.12854 36296 ft 382 kts 277°
2026-04-26 10:28 42.89217 58.05694 36296 ft 382 kts 277°
2026-04-26 10:29 42.90191 57.98592 36294 ft 381 kts 276°
2026-04-26 10:29 42.91159 57.91489 36296 ft 381 kts 276°
2026-04-26 10:30 42.92132 57.84392 36292 ft 380 kts 276°
2026-04-26 10:30 42.93099 57.77303 36290 ft 380 kts 276°
2026-04-26 10:31 42.94054 57.70213 36292 ft 380 kts 276°
2026-04-26 10:31 42.95010 57.63082 36285 ft 379 kts 276°
2026-04-26 10:32 42.95959 57.55991 36288 ft 379 kts 276°
2026-04-26 10:32 42.96903 57.48905 36287 ft 379 kts 276°
2026-04-26 10:33 42.97843 57.41810 36277 ft 379 kts 276°
2026-04-26 10:33 42.98777 57.34719 36283 ft 379 kts 276°
2026-04-26 10:34 42.99706 57.27635 36291 ft 379 kts 276°
2026-04-26 10:34 43.00636 57.20514 36277 ft 378 kts 276°
2026-04-26 10:35 43.01550 57.13444 36285 ft 378 kts 275°
2026-04-26 10:35 43.02461 57.06360 36281 ft 378 kts 275°
2026-04-26 10:36 43.03372 56.99282 36280 ft 378 kts 275°
2026-04-26 10:36 43.04289 56.92104 36274 ft 378 kts 275°
2026-04-26 10:37 43.05197 56.84978 36273 ft 378 kts 275°
2026-04-26 10:37 43.06099 56.77866 36273 ft 377 kts 275°
2026-04-26 10:38 43.06992 56.70794 36278 ft 377 kts 275°
2026-04-26 10:38 43.07877 56.63723 36277 ft 377 kts 275°
2026-04-26 10:39 43.08622 56.57709 36274 ft 377 kts 275°
2026-04-26 10:39 43.09500 56.50644 36271 ft 376 kts 275°
2026-04-26 10:40 43.10375 56.43524 36274 ft 376 kts 274°
2026-04-26 10:40 43.11242 56.36422 36275 ft 376 kts 274°
2026-04-26 10:41 43.12117 56.29312 36270 ft 376 kts 274°
2026-04-26 10:41 43.12983 56.22250 36270 ft 376 kts 274°
2026-04-26 10:42 43.13835 56.15189 36281 ft 376 kts 274°
2026-04-26 10:42 43.14680 56.08074 36271 ft 376 kts 274°
2026-04-26 10:43 43.15526 56.00968 36267 ft 376 kts 274°
2026-04-26 10:43 43.16524 55.93930 36273 ft 378 kts 277°
2026-04-26 10:44 43.17762 55.86867 36269 ft 378 kts 277°
2026-04-26 10:44 43.18987 55.79856 36267 ft 378 kts 277°
2026-04-26 10:45 43.20159 55.72840 36270 ft 377 kts 276°
2026-04-26 10:45 43.21292 55.65822 36265 ft 377 kts 276°
2026-04-26 10:46 43.22436 55.58754 36264 ft 377 kts 276°
2026-04-26 10:46 43.23583 55.51730 36259 ft 377 kts 276°
2026-04-26 10:47 43.24724 55.44659 36262 ft 377 kts 276°
2026-04-26 10:47 43.25857 55.37583 36262 ft 377 kts 276°
2026-04-26 10:48 43.26980 55.30547 36271 ft 377 kts 276°
2026-04-26 10:48 43.28112 55.23484 36274 ft 377 kts 276°
2026-04-26 10:49 43.29222 55.16555 36276 ft 377 kts 276°
2026-04-26 10:49 43.30354 55.09392 36278 ft 376 kts 276°
2026-04-26 10:50 43.31278 55.03514 36283 ft 376 kts 276°
2026-04-26 10:50 43.32562 54.95316 36281 ft 375 kts 276°
2026-04-26 10:51 43.34204 54.84815 36281 ft 374 kts 276°
2026-04-26 10:52 43.35289 54.77821 36290 ft 374 kts 276°
2026-04-26 10:52 43.36369 54.70844 36283 ft 373 kts 276°
2026-04-26 10:53 43.37448 54.63876 36283 ft 373 kts 276°
2026-04-26 10:53 43.38522 54.56856 36280 ft 372 kts 275°
2026-04-26 10:54 43.39940 54.47502 36284 ft 371 kts 275°
2026-04-26 10:54 43.40998 54.40559 36286 ft 371 kts 275°
2026-04-26 10:55 43.42049 54.33621 36286 ft 370 kts 275°
2026-04-26 10:55 43.43100 54.26649 36286 ft 370 kts 275°
2026-04-26 10:56 43.44143 54.19667 36287 ft 369 kts 275°
2026-04-26 10:56 43.45173 54.12753 36282 ft 369 kts 275°
2026-04-26 10:57 43.46208 54.05797 36288 ft 368 kts 275°
2026-04-26 10:57 43.47228 53.98894 36285 ft 368 kts 275°
2026-04-26 10:58 43.48237 53.92001 36285 ft 367 kts 275°
2026-04-26 10:58 43.49246 53.85118 36281 ft 366 kts 275°
2026-04-26 10:59 43.50251 53.78240 36272 ft 366 kts 274°
2026-04-26 10:59 43.51253 53.71328 36277 ft 365 kts 274°
2026-04-26 11:00 43.52241 53.64470 36271 ft 365 kts 274°
2026-04-26 11:00 43.53226 53.57598 36274 ft 365 kts 274°
2026-04-26 11:01 43.54200 53.50743 36276 ft 365 kts 274°
2026-04-26 11:01 43.55173 53.43886 36265 ft 364 kts 274°
2026-04-26 11:02 43.55658 53.40454 35899 ft 365 kts 279°
2026-04-26 11:02 43.56150 53.36984 36255 ft 364 kts 274°
2026-04-26 11:02 43.57109 53.30144 36243 ft 363 kts 273°
2026-04-26 11:03 43.58073 53.23282 36241 ft 364 kts 274°
2026-04-26 11:03 43.59036 53.16441 36242 ft 364 kts 274°
2026-04-26 11:04 43.60004 53.09573 36240 ft 365 kts 274°
2026-04-26 11:04 43.60962 53.02695 36245 ft 365 kts 273°
2026-04-26 11:05 43.61915 52.95766 36237 ft 365 kts 273°
2026-04-26 11:05 43.62864 52.88878 36236 ft 365 kts 273°
2026-04-26 11:06 43.63660 52.83098 36226 ft 365 kts 273°
2026-04-26 11:06 43.64779 52.74952 36226 ft 366 kts 273°
2026-04-26 11:07 43.65726 52.67991 36218 ft 367 kts 273°
2026-04-26 11:07 43.66668 52.61007 36221 ft 368 kts 273°
2026-04-26 11:08 43.67598 52.54055 36218 ft 368 kts 273°
2026-04-26 11:08 43.68534 52.47042 36223 ft 369 kts 273°
2026-04-26 11:09 43.69453 52.40059 36219 ft 370 kts 273°
2026-04-26 11:09 43.70423 52.33016 36222 ft 371 kts 274°
2026-04-26 11:10 43.71407 52.26005 36219 ft 372 kts 274°
2026-04-26 11:10 43.72378 52.18977 36223 ft 373 kts 274°
2026-04-26 11:11 43.73178 52.13114 36215 ft 374 kts 274°
2026-04-26 11:11 43.74144 52.06000 36220 ft 375 kts 274°
2026-04-26 11:12 43.75110 51.98908 36215 ft 376 kts 274°
2026-04-26 11:12 43.76073 51.91803 36220 ft 376 kts 274°
2026-04-26 11:13 43.77030 51.84669 36215 ft 377 kts 274°
2026-04-26 11:13 43.77984 51.77515 36209 ft 378 kts 274°
2026-04-26 11:14 43.78944 51.70309 36211 ft 379 kts 274°
2026-04-26 11:14 43.79906 51.63067 36207 ft 380 kts 274°
2026-04-26 11:15 43.80861 51.55810 36199 ft 381 kts 274°
2026-04-26 11:15 43.81802 51.48587 36197 ft 382 kts 274°
2026-04-26 11:16 43.82742 51.41348 36185 ft 383 kts 274°
2026-04-26 11:16 43.83694 51.34028 36182 ft 384 kts 274°
2026-04-26 11:17 43.84638 51.26732 36177 ft 384 kts 274°
2026-04-26 11:17 43.85614 51.19164 36173 ft 385 kts 274°
2026-04-26 11:18 43.86546 51.11855 36174 ft 385 kts 274°
2026-04-26 11:18 43.87248 51.04531 36182 ft 381 kts 266°
2026-04-26 11:19 43.87288 50.97183 36177 ft 382 kts 266°
2026-04-26 11:19 43.87337 50.89759 36190 ft 383 kts 266°
2026-04-26 11:20 43.87380 50.83577 36192 ft 383 kts 266°
2026-04-26 11:20 43.87426 50.74937 36208 ft 384 kts 266°
2026-04-26 11:21 43.87454 50.67493 36202 ft 384 kts 266°
2026-04-26 11:21 43.87475 50.60778 36202 ft 384 kts 266°
2026-04-26 11:22 43.87501 50.53346 36195 ft 385 kts 266°
2026-04-26 11:22 43.87529 50.45874 36194 ft 386 kts 266°
2026-04-26 11:23 43.87541 50.39634 36191 ft 386 kts 266°
2026-04-26 11:23 43.87549 50.32195 36190 ft 387 kts 266°
2026-04-26 11:24 43.87553 50.24727 36181 ft 387 kts 266°
2026-04-26 11:24 43.87554 50.17254 36181 ft 388 kts 266°
2026-04-26 11:25 43.87551 50.09755 35980 ft 391 kts 269°
2026-04-26 11:25 43.87548 50.05985 36152 ft 392 kts 269°
2026-04-26 11:25 43.87544 50.02184 36196 ft 397 kts 269°
2026-04-26 11:26 43.87529 49.94480 36196 ft 401 kts 269°
2026-04-26 11:26 43.87505 49.86701 36193 ft 401 kts 269°
2026-04-26 11:27 43.87479 49.78966 36192 ft 401 kts 268°
2026-04-26 11:27 43.87450 49.71224 36190 ft 402 kts 269°
2026-04-26 11:28 43.87415 49.63472 36193 ft 402 kts 268°
2026-04-26 11:28 43.87362 49.55732 36194 ft 402 kts 268°
2026-04-26 11:29 43.87315 49.47987 36187 ft 402 kts 269°
2026-04-26 11:29 43.87307 49.40238 36189 ft 402 kts 269°
2026-04-26 11:30 43.87302 49.33800 36185 ft 402 kts 269°
2026-04-26 11:30 43.87277 49.24727 36184 ft 402 kts 268°
2026-04-26 11:31 43.87243 49.16986 36183 ft 402 kts 268°
2026-04-26 11:31 43.87198 49.09246 36177 ft 402 kts 268°
2026-04-26 11:32 43.87150 49.01503 36174 ft 402 kts 268°
2026-04-26 11:32 43.87100 48.93763 36171 ft 402 kts 268°
2026-04-26 11:33 43.87047 48.85975 36170 ft 401 kts 268°
2026-04-26 11:33 43.86989 48.78237 36164 ft 402 kts 268°
2026-04-26 11:34 43.86932 48.70446 36163 ft 402 kts 268°
2026-04-26 11:34 43.86863 48.62653 36156 ft 402 kts 268°
2026-04-26 11:35 43.86777 48.54495 36152 ft 401 kts 268°
2026-04-26 11:35 43.86710 48.48013 36150 ft 401 kts 268°
2026-04-26 11:36 43.86608 48.38980 36141 ft 401 kts 268°
2026-04-26 11:36 43.86514 48.31260 36137 ft 401 kts 268°
2026-04-26 11:37 43.86418 48.23421 36130 ft 401 kts 268°
2026-04-26 11:37 43.86327 48.15696 36127 ft 401 kts 268°
2026-04-26 11:38 43.86242 48.09231 36125 ft 401 kts 268°
2026-04-26 11:38 43.86125 48.01452 36127 ft 401 kts 268°
2026-04-26 11:39 43.86002 47.93670 36126 ft 401 kts 268°
2026-04-26 11:39 43.85886 47.85942 36123 ft 401 kts 268°
2026-04-26 11:40 43.85759 47.78207 36122 ft 401 kts 268°
2026-04-26 11:40 43.85631 47.70478 36121 ft 402 kts 268°
2026-04-26 11:42 43.85049 47.39424 36110 ft 402 kts 267°
2026-04-26 11:43 43.84891 47.31696 36107 ft 402 kts 267°
2026-04-26 11:43 43.84727 47.23959 36102 ft 402 kts 267°
2026-04-26 11:44 43.84557 47.16216 36098 ft 402 kts 267°
2026-04-26 11:44 43.84377 47.08485 36094 ft 402 kts 267°
2026-04-26 11:45 43.84202 47.00751 36090 ft 402 kts 267°
2026-04-26 11:45 43.84023 46.92963 36081 ft 401 kts 267°
2026-04-26 11:46 43.83829 46.85236 36073 ft 401 kts 267°
2026-04-26 11:46 43.83625 46.77515 36065 ft 401 kts 266°
2026-04-26 11:47 43.83646 46.69792 36064 ft 403 kts 276°
2026-04-26 11:47 43.84509 46.62109 36057 ft 403 kts 277°
2026-04-26 11:48 43.85368 46.54370 36057 ft 406 kts 276°
2026-04-26 11:48 43.86207 46.46628 36050 ft 405 kts 276°
2026-04-26 11:49 43.87038 46.38921 36045 ft 404 kts 276°
2026-04-26 11:49 43.87865 46.31221 36039 ft 404 kts 276°
2026-04-26 11:50 43.88692 46.23524 36038 ft 404 kts 276°
2026-04-26 11:50 43.89516 46.15818 36032 ft 404 kts 276°
2026-04-26 11:51 43.90333 46.08103 36030 ft 404 kts 276°
2026-04-26 11:51 43.91141 46.00392 36027 ft 404 kts 276°
2026-04-26 11:52 43.91811 45.93926 36024 ft 404 kts 276°
2026-04-26 11:52 43.92375 45.84672 36019 ft 403 kts 270°
2026-04-26 11:53 43.92543 45.76899 36009 ft 403 kts 270°
2026-04-26 11:54 43.92787 45.65224 36002 ft 404 kts 270°
2026-04-26 11:54 43.92943 45.57427 36006 ft 405 kts 270°
2026-04-26 11:55 43.93096 45.49617 36007 ft 405 kts 270°
2026-04-26 11:55 43.93244 45.41816 36010 ft 405 kts 270°
2026-04-26 11:56 43.93385 45.33998 36011 ft 405 kts 270°
2026-04-26 11:56 43.93519 45.26183 36010 ft 405 kts 270°
2026-04-26 11:57 43.93653 45.18367 36010 ft 405 kts 270°
2026-04-26 11:57 43.93759 45.11770 36018 ft 405 kts 270°
2026-04-26 11:58 43.93884 45.03893 36007 ft 405 kts 270°
2026-04-26 11:58 43.94001 44.96069 36010 ft 405 kts 269°
2026-04-26 11:59 43.94108 44.88206 36002 ft 405 kts 270°
2026-04-26 11:59 43.94217 44.80331 36012 ft 406 kts 270°
2026-04-26 12:00 43.94314 44.72501 36009 ft 406 kts 269°
2026-04-26 12:00 43.94407 44.64654 36017 ft 406 kts 269°
2026-04-26 12:01 43.94499 44.56813 36006 ft 406 kts 269°
2026-04-26 12:01 43.94585 44.48818 36006 ft 406 kts 269°
2026-04-26 12:02 43.94663 44.40933 35982 ft 406 kts 269°
2026-04-26 12:02 43.94739 44.33112 35991 ft 406 kts 269°
2026-04-26 12:03 43.94807 44.25279 35992 ft 406 kts 269°
2026-04-26 12:03 43.94866 44.17453 35985 ft 406 kts 269°
2026-04-26 12:04 43.94925 44.09571 35979 ft 406 kts 269°
2026-04-26 12:04 43.94980 44.01737 35974 ft 406 kts 269°
2026-04-26 12:05 43.95029 43.93886 35973 ft 406 kts 269°
2026-04-26 12:05 43.95070 43.86040 35967 ft 407 kts 269°
2026-04-26 12:06 43.95110 43.78137 35971 ft 407 kts 269°
2026-04-26 12:06 43.95139 43.70283 35970 ft 407 kts 269°
2026-04-26 12:07 43.95161 43.62423 35971 ft 407 kts 269°
2026-04-26 12:07 43.95180 43.54567 35976 ft 407 kts 269°
2026-04-26 12:08 43.95192 43.46698 35972 ft 407 kts 269°
2026-04-26 12:08 43.95202 43.38841 35976 ft 408 kts 269°
2026-04-26 12:09 43.95207 43.30963 35979 ft 408 kts 269°
2026-04-26 12:09 43.95205 43.23087 35984 ft 408 kts 269°
2026-04-26 12:10 43.95193 43.15028 35986 ft 409 kts 269°
2026-04-26 12:10 43.95183 43.07146 35988 ft 409 kts 268°
2026-04-26 12:11 43.95169 42.99251 35986 ft 409 kts 268°
2026-04-26 12:11 43.95141 42.91358 35985 ft 409 kts 268°
2026-04-26 12:12 43.95100 42.83402 35984 ft 409 kts 268°
2026-04-26 12:12 43.95073 42.76838 35980 ft 410 kts 268°
2026-04-26 12:13 43.95045 42.68877 35978 ft 410 kts 268°
2026-04-26 12:13 43.95003 42.60980 35972 ft 410 kts 268°
2026-04-26 12:14 43.94816 42.53081 35964 ft 410 kts 266°
2026-04-26 12:14 43.94553 42.45179 35958 ft 410 kts 266°
2026-04-26 12:15 43.94304 42.37268 35959 ft 410 kts 266°
2026-04-26 12:15 43.94066 42.29303 35956 ft 411 kts 266°
2026-04-26 12:16 43.93828 42.21315 35950 ft 411 kts 266°
2026-04-26 12:16 43.93587 42.13385 35945 ft 411 kts 266°
2026-04-26 12:17 43.93338 42.05406 35945 ft 411 kts 266°
2026-04-26 12:17 43.93083 41.97477 35938 ft 411 kts 266°
2026-04-26 12:18 43.92826 41.89498 35939 ft 411 kts 266°
2026-04-26 12:18 43.92559 41.81514 35939 ft 411 kts 266°
2026-04-26 12:19 43.92280 41.73439 35946 ft 411 kts 266°
2026-04-26 12:19 43.91998 41.65450 35946 ft 411 kts 266°
2026-04-26 12:20 43.91711 41.57483 35948 ft 411 kts 266°
2026-04-26 12:20 43.91418 41.49507 35948 ft 411 kts 266°
2026-04-26 12:21 43.91109 41.41494 35947 ft 410 kts 266°
2026-04-26 12:21 43.90797 41.33591 35949 ft 410 kts 265°
2026-04-26 12:22 43.90480 41.25642 35878 ft 411 kts 265°
2026-04-26 12:22 43.90318 41.21690 35623 ft 410 kts 265°
2026-04-26 12:22 43.90156 41.17746 35371 ft 410 kts 265°
2026-04-26 12:22 43.89992 41.13743 35123 ft 411 kts 265°
2026-04-26 12:23 43.89829 41.09785 34877 ft 411 kts 265°
2026-04-26 12:23 43.89666 41.05852 34633 ft 411 kts 265°
2026-04-26 12:23 43.89498 41.01863 34388 ft 412 kts 265°
2026-04-26 12:23 43.89329 40.97900 34159 ft 413 kts 265°
2026-04-26 12:24 43.89157 40.93928 33668 ft 413 kts 265°
2026-04-26 12:24 43.88983 40.89920 32670 ft 417 kts 265°
2026-04-26 12:24 43.88865 40.87206 32053 ft 419 kts 266°
2026-04-26 12:25 43.88512 40.79204 30823 ft 411 kts 266°
2026-04-26 12:25 43.88336 40.75275 30244 ft 407 kts 265°
2026-04-26 12:25 43.87931 40.71355 29591 ft 404 kts 257°
2026-04-26 12:25 43.87084 40.67669 28976 ft 400 kts 248°
2026-04-26 12:26 43.85950 40.64116 28385 ft 395 kts 247°
2026-04-26 12:26 43.84841 40.60661 27788 ft 391 kts 246°
2026-04-26 12:26 43.83744 40.57228 27216 ft 388 kts 247°
2026-04-26 12:26 43.82658 40.53832 26644 ft 384 kts 247°
2026-04-26 12:27 43.81581 40.50463 26080 ft 381 kts 247°
2026-04-26 12:27 43.80512 40.47110 25522 ft 380 kts 247°
2026-04-26 12:27 43.79442 40.43753 24974 ft 375 kts 247°
2026-04-26 12:27 43.78399 40.40488 24449 ft 372 kts 247°
2026-04-26 12:28 43.77355 40.37231 23916 ft 370 kts 247°
2026-04-26 12:28 43.76295 40.33943 23398 ft 368 kts 246°
2026-04-26 12:28 43.75255 40.30717 22857 ft 364 kts 246°
2026-04-26 12:28 43.74231 40.27543 22400 ft 360 kts 246°
2026-04-26 12:29 43.73215 40.24400 21938 ft 356 kts 246°
2026-04-26 12:29 43.72208 40.21295 21466 ft 351 kts 246°
2026-04-26 12:29 43.70209 40.15230 20572 ft 344 kts 242°
2026-04-26 12:30 43.68866 40.12514 20113 ft 343 kts 231°
2026-04-26 12:30 43.67098 40.10223 19934 ft 353 kts 219°
2026-04-26 12:30 43.64949 40.08432 19860 ft 360 kts 208°
2026-04-26 12:31 43.60359 40.05540 19519 ft 360 kts 207°
2026-04-26 12:31 43.58083 40.04107 19276 ft 359 kts 207°
2026-04-26 12:31 43.55817 40.02685 19037 ft 357 kts 207°
2026-04-26 12:31 43.53558 40.01268 18797 ft 356 kts 207°
2026-04-26 12:32 43.51271 39.99840 18559 ft 355 kts 207°
2026-04-26 12:32 43.48996 39.98424 18322 ft 354 kts 207°
2026-04-26 12:32 43.44444 39.95754 17798 ft 353 kts 201°
2026-04-26 12:33 43.42119 39.94697 17528 ft 352 kts 201°
2026-04-26 12:33 43.39795 39.93638 17263 ft 351 kts 201°
2026-04-26 12:33 43.37454 39.92567 17021 ft 349 kts 201°
2026-04-26 12:33 43.35125 39.91503 16932 ft 348 kts 201°
2026-04-26 12:34 43.32822 39.90453 16950 ft 349 kts 201°
2026-04-26 12:34 43.30521 39.89406 16951 ft 349 kts 201°
2026-04-26 12:34 43.28216 39.88359 16678 ft 348 kts 201°
2026-04-26 12:34 43.25925 39.87317 16264 ft 346 kts 201°
2026-04-26 12:35 43.23649 39.86283 15844 ft 343 kts 200°
2026-04-26 12:35 43.21388 39.85258 15425 ft 341 kts 200°
2026-04-26 12:35 43.19138 39.84241 15008 ft 339 kts 200°
2026-04-26 12:35 43.16905 39.83235 14592 ft 337 kts 200°
2026-04-26 12:36 43.14682 39.82234 14173 ft 335 kts 200°
2026-04-26 12:36 43.12471 39.81241 13811 ft 333 kts 200°
2026-04-26 12:36 43.10247 39.80239 13386 ft 331 kts 200°
2026-04-26 12:36 43.08133 39.79146 12977 ft 327 kts 211°
2026-04-26 12:37 43.06420 39.77179 12584 ft 321 kts 233°
2026-04-26 12:37 43.05427 39.74433 12173 ft 320 kts 255°
2026-04-26 12:37 43.05325 39.71401 11752 ft 322 kts 277°
2026-04-26 12:37 43.05926 39.68443 11331 ft 324 kts 284°
2026-04-26 12:38 43.06599 39.65516 10898 ft 322 kts 284°
2026-04-26 12:38 43.07274 39.62599 10488 ft 320 kts 284°
2026-04-26 12:38 43.07933 39.59751 10326 ft 308 kts 284°
2026-04-26 12:38 43.08565 39.57018 10201 ft 295 kts 284°
2026-04-26 12:39 43.09174 39.54391 10029 ft 286 kts 284°
2026-04-26 12:39 43.09767 39.51823 9869 ft 281 kts 284°
2026-04-26 12:39 43.10434 39.49300 9553 ft 284 kts 294°
2026-04-26 12:39 43.11588 39.47107 9159 ft 288 kts 314°
2026-04-26 12:40 43.13329 39.45729 8715 ft 295 kts 340°
2026-04-26 12:40 43.15351 39.45109 8212 ft 299 kts 347°
2026-04-26 12:40 43.17409 39.44600 7704 ft 301 kts 347°
2026-04-26 12:40 43.19471 39.44092 7217 ft 302 kts 347°
2026-04-26 12:41 43.21513 39.43583 6710 ft 292 kts 347°
2026-04-26 12:41 43.23479 39.43088 6240 ft 283 kts 347°
2026-04-26 12:41 43.25397 39.42731 5719 ft 274 kts
2026-04-26 12:41 43.27240 39.43181 5222 ft 266 kts 20°
2026-04-26 12:42 43.28845 39.44349 4730 ft 258 kts 34°
2026-04-26 12:42 43.30115 39.46035 4213 ft 246 kts 64°
2026-04-26 12:42 43.30504 39.48208 3723 ft 231 kts 98°
2026-04-26 12:42 43.30363 39.50381 3394 ft 226 kts 98°
2026-04-26 12:43 43.30373 39.52484 3087 ft 218 kts 82°
2026-04-26 12:43 43.30827 39.54450 2994 ft 217 kts 71°
2026-04-26 12:43 43.31451 39.56352 3004 ft 219 kts 69°
2026-04-26 12:43 43.32109 39.58248 3009 ft 221 kts 69°
2026-04-26 12:44 43.32763 39.60126 3001 ft 212 kts 69°
2026-04-26 12:44 43.33381 39.61902 3000 ft 203 kts 70°
2026-04-26 12:44 43.33780 39.63055 2999 ft 200 kts 70°
2026-04-26 12:44 43.34381 39.64795 3002 ft 198 kts 70°
2026-04-26 12:45 43.34961 39.66471 3002 ft 197 kts 70°
2026-04-26 12:45 43.35546 39.68165 3004 ft 196 kts 71°
2026-04-26 12:45 43.36138 39.69879 3005 ft 195 kts 70°
2026-04-26 12:45 43.36719 39.71562 3001 ft 195 kts 71°
2026-04-26 12:46 43.37285 39.73195 2900 ft 184 kts 71°
2026-04-26 12:46 43.37819 39.74741 2677 ft 173 kts 71°
2026-04-26 12:46 43.38317 39.76184 2474 ft 162 kts 71°
2026-04-26 12:46 43.38784 39.77538 2278 ft 152 kts 71°
2026-04-26 12:47 43.39226 39.78825 2093 ft 146 kts 71°
2026-04-26 12:47 43.39657 39.80079 1905 ft 143 kts 71°
2026-04-26 12:47 43.40076 39.81297 1748 ft 139 kts 71°
2026-04-26 12:47 43.40496 39.82521 1572 ft 138 kts 71°
2026-04-26 12:48 43.40908 39.83721 1390 ft 139 kts 69°
2026-04-26 12:48 43.41324 39.84932 1221 ft 141 kts 68°
2026-04-26 12:48 43.41743 39.86152 1044 ft 142 kts 67°
2026-04-26 12:48 43.42172 39.87403 858 ft 143 kts 65°
2026-04-26 12:49 43.42595 39.88636 678 ft 143 kts 66°
2026-04-26 12:49 43.43017 39.89865 504 ft 141 kts 66°
2026-04-26 12:49 43.43440 39.91099 323 ft 140 kts 66°
2026-04-26 12:49 43.43857 39.92317 142 ft 138 kts 66°
2026-04-26 12:50 43.44254 39.93488 53 ft 117 kts 65°
2026-04-26 12:50 43.44527 39.94277 72 ft 65 kts 65°
2026-04-26 12:50 43.44649 39.94627 71 ft 20 kts 66°
2026-04-26 12:50 43.44690 39.94755 72 ft 10 kts 63°
2026-04-26 12:51 43.44744 39.94781 71 ft 8 kts 344°
2026-04-26 12:51 43.44793 39.94747 72 ft 8 kts 323°
2026-04-26 12:51 43.44790 39.94685 68 ft 6 kts 235°
2026-04-26 12:51 43.44773 39.94653 72 ft 3 kts 271°
2026-04-26 12:52 43.44769 39.94624 73 ft 3 kts 256°
2026-04-26 12:52 43.44758 39.94591 71 ft 6 kts 244°
2026-04-26 12:52 43.44732 39.94518 72 ft 9 kts 244°
2026-04-26 12:52 43.44707 39.94446 66 ft 8 kts 245°
2026-04-26 12:53 43.44685 39.94381 65 ft 7 kts 244°
2026-04-26 12:53 43.44666 39.94325 70 ft 6 kts 244°
2026-04-26 12:53 43.44650 39.94277 70 ft 5 kts 245°
2026-04-26 12:53 43.44636 39.94236 66 ft 4 kts 245°
2026-04-26 12:54 43.44617 39.94180 66 ft 7 kts 245°
2026-04-26 12:54 43.44601 39.94122 68 ft 6 kts 271°
2026-04-26 12:54 43.44623 39.94085 70 ft 4 kts 328°
2026-04-26 12:54 43.44660 39.94061 73 ft 6 kts 335°
2026-04-26 12:55 43.44695 39.94039 66 ft 3 kts 335°
2026-04-26 12:55 43.44699 39.94036 65 ft 0 kts 335°